H1 CPF 2 NER 2024 11 6 9 311 01 glonass132 H2 1401201 9132 39620 2024 11 6 0 0 0 2024 11 9 23 45 0 900 1 1 0 0 0 1 H9 10 0 60620 0.00000 0 10412103.811 2054716.484 23216545.401 10 0 60620 900.00000 0 9615527.929 4800458.227 23158050.075 10 0 60620 1800.00000 0 9035940.364 7564203.687 22651008.904 10 0 60620 2700.00000 0 8679864.998 10275333.473 21705371.050 10 0 60620 3600.00000 0 8541205.636 12864011.302 20339541.574 10 0 60620 4500.00000 0 8601620.565 15263859.207 18580022.115 10 0 60620 5400.00000 0 8831422.933 17414496.790 16460899.523 10 0 60620 6300.00000 0 9190968.702 19263841.035 14023191.845 10 0 60620 7200.00000 0 9632473.912 20770072.898 11314063.551 10 0 60620 8100.00000 0 10102185.360 21903190.372 8385924.113 10 0 60620 9000.00000 0 10542814.133 22646084.507 5295426.190 10 0 60620 9900.00000 0 10896130.426 22995094.171 2102381.634 10 0 60620 10800.00000 0 11105611.127 22960016.667 -1131384.807 10 0 60620 11700.00000 0 11119029.159 22563573.642 -4343222.891 10 0 60620 12600.00000 0 10890875.548 21840354.157 -7470863.084 10 0 60620 13500.00000 0 10384511.821 20835278.566 -10453618.743 10 0 60620 14400.00000 0 9573961.110 19601646.748 -13233561.268 10 0 60620 15300.00000 0 8445261.107 18198851.840 -15756645.482 10 0 60620 16200.00000 0 6997320.013 16689854.650 -17973763.294 10 0 60620 17100.00000 0 5242237.130 15138524.256 -19841704.890 10 0 60620 18000.00000 0 3205072.095 13606956.142 -21324008.328 10 0 60620 18900.00000 0 923069.707 12152880.403 -22391680.429 10 0 60620 19800.00000 0 -1555629.809 10827269.071 -23023774.231 10 0 60620 20700.00000 0 -4173743.516 9672243.479 -23207810.926 10 0 60620 21600.00000 0 -6866990.212 8719370.190 -22940037.130 10 0 60620 22500.00000 0 -9566538.596 7988417.781 -22225511.459 10 0 60620 23400.00000 0 -12201657.844 7486627.479 -21078017.730 10 0 60620 24300.00000 0 -14702460.409 7208528.890 -19519805.470 10 0 60620 25200.00000 0 -17002622.407 7136308.948 -17581162.007 10 0 60620 26100.00000 0 -19041967.423 7240718.539 -15299823.857 10 0 60620 27000.00000 0 -20768805.006 7482478.176 -12720238.640 10 0 60620 27900.00000 0 -22141925.225 7814122.542 -9892691.969 10 0 60620 28800.00000 0 -23132165.068 8182204.676 -6872316.914 10 0 60620 29700.00000 0 -23723480.747 8529764.990 -3718006.251 10 0 60620 30600.00000 0 -23913481.050 8798958.760 -491249.942 10 0 60620 31500.00000 0 -23713400.074 8933728.918 2745077.935 10 0 60620 32400.00000 0 -23147511.746 8882409.171 5927957.615 10 0 60620 33300.00000 0 -22252012.505 8600145.625 8995461.784 10 0 60620 34200.00000 0 -21073421.152 8051033.302 11887968.004 10 0 60620 35100.00000 0 -19666565.320 7209876.469 14549320.944 10 0 60620 36000.00000 0 -18092241.164 6063498.168 16927921.416 10 0 60620 36900.00000 0 -16414646.214 4611543.890 18977721.134 10 0 60620 37800.00000 0 -14698694.211 2866745.929 20659104.569 10 0 60620 38700.00000 0 -13007324.871 854637.854 21939641.922 10 0 60620 39600.00000 0 -11398920.938 -1387268.479 22794700.072 10 0 60620 40500.00000 0 -9924939.598 -3810808.692 23207901.363 10 0 60620 41400.00000 0 -8627855.631 -6358939.166 23171423.052 10 0 60620 42300.00000 0 -7539500.303 -8967884.416 22686133.196 10 0 60620 43200.00000 0 -6679863.141 -11569570.124 21761561.643 10 0 60620 44100.00000 0 -6056404.459 -14094241.976 20415707.600 10 0 60620 45000.00000 0 -5663905.419 -16473163.135 18674687.940 10 0 60620 45900.00000 0 -5484860.276 -18641280.048 16572233.066 10 0 60620 46800.00000 0 -5490393.309 -20539747.730 14149039.617 10 0 60620 47700.00000 0 -5641661.408 -22118211.179 11451991.776 10 0 60620 48600.00000 0 -5891683.408 -23336749.532 8533265.199 10 0 60620 49500.00000 0 -6187519.590 -24167403.062 5449329.694 10 0 60620 50400.00000 0 -6472710.274 -24595220.043 2259868.811 10 0 60620 51300.00000 0 -6689871.464 -24618780.014 -973363.910 10 0 60620 52200.00000 0 -6783338.732 -24250171.393 -4187730.845 10 0 60620 53100.00000 0 -6701748.170 -23514423.824 -7320916.102 10 0 60620 54000.00000 0 -6400445.480 -22448418.224 -10312128.429 10 0 60620 54900.00000 0 -5843621.043 -21099319.174 -13103278.201 10 0 60620 55800.00000 0 -5006079.849 -19522594.360 -15640105.711 10 0 60620 56700.00000 0 -3874570.136 -17779703.069 -17873238.784 10 0 60620 57600.00000 0 -2448612.734 -15935549.806 -19759158.884 10 0 60620 58500.00000 0 -740793.805 -14055809.161 -21261056.526 10 0 60620 59400.00000 0 1223493.915 -12204233.678 -22349558.775 10 0 60620 60300.00000 0 3406853.260 -10440057.445 -23003314.006 10 0 60620 61200.00000 0 5761197.069 -8815604.392 -23209421.686 10 0 60620 62100.00000 0 8229522.193 -7374201.909 -22963697.905 10 0 60620 63000.00000 0 10748070.728 -6148487.750 -22270770.461 10 0 60620 63900.00000 0 13248789.398 -5159181.793 -21144000.607 10 0 60620 64800.00000 0 15661985.004 -4414374.675 -19605232.024 10 0 60620 65700.00000 0 17919065.105 -3909363.440 -17684371.040 10 0 60620 66600.00000 0 19955248.890 -3627041.087 -15418805.678 10 0 60620 67500.00000 0 21712134.097 -3538823.192 -12852674.577 10 0 60620 68400.00000 0 23140011.552 -3606071.642 -10036000.084 10 0 60620 69300.00000 0 24199829.358 -3781954.100 -7023702.981 10 0 60620 70200.00000 0 24864723.656 -4013658.933 -3874518.948 10 0 60620 71100.00000 0 25121051.344 -4244869.955 -649839.114 10 0 60620 72000.00000 0 24968881.563 -4418394.150 2587501.154 10 0 60620 72900.00000 0 24421926.013 -4478829.079 5774460.052 10 0 60620 73800.00000 0 23506912.307 -4375155.185 8849028.108 10 0 60620 74700.00000 0 22262428.372 -4063141.802 11751442.459 10 0 60620 75600.00000 0 20737288.355 -3507464.064 14425352.093 10 0 60620 76500.00000 0 18988490.586 -2683440.739 16818910.970 10 0 60620 77400.00000 0 17078854.965 -1578319.578 18885777.851 10 0 60620 78300.00000 0 15074440.101 -192056.330 20586004.051 10 0 60620 79200.00000 0 13041848.954 1462444.870 21886793.030 10 0 60620 80100.00000 0 11045535.693 3359639.228 22763118.519 10 0 60620 81000.00000 0 9145225.506 5462183.865 23198190.908 10 0 60620 81900.00000 0 7393553.662 7722279.822 23183764.585 10 0 60620 82800.00000 0 5834020.425 10083457.713 22720281.850 10 0 60620 83700.00000 0 4499344.840 12482733.220 21816851.956 10 0 60620 84600.00000 0 3410283.669 14853043.763 20491066.597 10 0 60620 85500.00000 0 2574962.470 17125866.306 18768655.893 10 0 60621 0.00000 0 1988744.804 19233908.890 16682991.744 10 0 60621 900.00000 0 1634643.139 21113766.739 14274446.531 10 0 60621 1800.00000 0 1484253.912 22708431.232 11589621.698 10 0 60621 2700.00000 0 1499175.960 23969552.510 8680456.354 10 0 60621 3600.00000 0 1632853.500 24859359.634 5603234.677 10 0 60621 4500.00000 0 1832766.113 25352160.039 2417509.105 10 0 60621 5400.00000 0 2042874.112 25435355.730 -815040.797 10 0 60621 6300.00000 0 2206216.804 25109933.515 -4031792.701 10 0 60621 7200.00000 0 2267554.502 24390408.152 -7170386.884 10 0 60621 8100.00000 0 2175943.000 23304219.865 -10169929.808 10 0 60621 9000.00000 0 1887131.626 21890610.247 -12972172.903 10 0 60621 9900.00000 0 1365682.991 20199022.386 -15522643.752 10 0 60621 10800.00000 0 586723.850 18287090.927 -17771707.644 10 0 60621 11700.00000 0 -462748.442 16218305.054 -19675538.636 10 0 60621 12600.00000 0 -1783060.980 14059441.309 -21196980.788 10 0 60621 13500.00000 0 -3361598.147 11877872.943 -22306282.287 10 0 60621 14400.00000 0 -5173086.074 9738867.985 -22981687.503 10 0 60621 15300.00000 0 -7180419.334 7702988.937 -23209874.591 10 0 60621 16200.00000 0 -9335997.620 5823702.999 -22986229.226 10 0 60621 17100.00000 0 -11583518.469 4145303.117 -22314948.129 10 0 60621 18000.00000 0 -13860152.524 2701227.310 -21208969.331 10 0 60621 18900.00000 0 -16099011.268 1512847.051 -19689729.560 10 0 60621 19800.00000 0 -18231804.349 588775.726 -17786752.616 10 0 60621 20700.00000 0 -20191575.002 -75273.784 -15537076.123 10 0 60621 21600.00000 0 -21915398.318 -496076.835 -12984527.523 10 0 60621 22500.00000 0 -23346928.272 -701948.214 -10178863.469 10 0 60621 23400.00000 0 -24438685.486 -731298.063 -7174789.893 10 0 60621 24300.00000 0 -25153988.656 -630755.173 -4030882.746 10 0 60621 25200.00000 0 -25468447.702 -452938.954 -808431.664 10 0 60621 26100.00000 0 -25370955.532 -253976.527 2429769.360 10 0 60621 27000.00000 0 -24864136.906 -90872.251 5620659.142 10 0 60621 27900.00000 0 -23964236.253 -18843.107 8702148.698 10 0 60621 28800.00000 0 -22700450.382 -88734.476 11614337.331 10 0 60621 29700.00000 0 -21113735.687 -344626.960 14300680.846 10 0 60621 30600.00000 0 -19255141.635 -821736.178 16709088.703 10 0 60621 31500.00000 0 -17183742.055 -1544694.504 18792928.822 10 0 60621 32400.00000 0 -14964252.242 -2526286.988 20511921.180 10 0 60621 33300.00000 0 -12664432.369 -3766694.205 21832903.938 10 0 60621 34200.00000 0 -10352385.934 -5253273.155 22730458.710 10 0 60621 35100.00000 0 -8093865.471 -6960884.800 23187384.531 10 0 60621 36000.00000 0 -5949696.689 -8852754.093 23195013.081 10 0 60621 36900.00000 0 -3973426.610 -10881826.413 22753360.664 10 0 60621 37800.00000 0 -2209291.453 -12992564.089 21871115.317 10 0 60621 38700.00000 0 -690586.448 -15123108.814 20565460.261 10 0 60621 39600.00000 0 561496.933 -17207720.918 18861737.585 10 0 60621 40500.00000 0 1538520.168 -19179395.276 16792958.715 10 0 60621 41400.00000 0 2244908.148 -20972546.444 14399170.694 10 0 60621 42300.00000 0 2697517.800 -22525652.666 11726689.820 10 0 60621 43200.00000 0 2924683.927 -23783749.930 8827216.394 10 0 60621 44100.00000 0 2964782.736 -24700673.157 5756846.552 10 0 60621 45000.00000 0 2864373.451 -25240951.647 2574999.115 10 0 60621 45900.00000 0 2675995.863 -25381279.853 -656722.893 10 0 60621 46800.00000 0 2455716.117 -25111501.776 -3875715.035 10 0 60621 47700.00000 0 2260523.703 -24435067.105 -7019576.367 10 0 60621 48600.00000 0 2145689.144 -23368938.988 -10027313.671 10 0 60621 49500.00000 0 2162193.832 -21942955.932 -12840522.017 10 0 60621 50400.00000 0 2354340.823 -20198673.057 -15404518.811 10 0 60621 51300.00000 0 2757648.206 -18187729.667 -17669409.243 10 0 60621 52200.00000 0 3397115.171 -15969809.919 -19591062.207 10 0 60621 53100.00000 0 4285935.543 -13610280.611 -21131977.297 10 0 60621 54000.00000 0 5424715.042 -11177603.757 -22262025.484 10 0 60621 54900.00000 0 6801227.530 -8740631.295 -22959048.389 10 0 60621 55800.00000 0 8390722.909 -6365894.502 -23209303.677 10 0 60621 56700.00000 0 10156776.119 -4115001.207 -23007746.987 10 0 60621 57600.00000 0 12052643.736 -2042249.567 -22358143.904 10 0 60621 58500.00000 0 14023073.004 -192558.482 -21273008.750 10 0 60621 59400.00000 0 16006488.668 1400198.547 -19773370.407 10 0 60621 60300.00000 0 17937466.550 2714386.095 -17888368.842 10 0 60621 61200.00000 0 19749390.122 3741275.976 -15654689.565 10 0 60621 62100.00000 0 21377178.115 4485165.082 -13115846.697 10 0 60621 63000.00000 0 22759967.669 4962937.637 -10321328.660 10 0 60621 63900.00000 0 23843639.099 5203091.384 -7325623.625 10 0 60621 64800.00000 0 24583074.879 5244270.390 -4187144.590 10 0 60621 65700.00000 0 24944056.682 5133368.335 -967076.254 10 0 60621 66600.00000 0 24904719.893 4923284.694 2271832.307 10 0 60621 67500.00000 0 24456504.042 4670431.036 5466504.047 10 0 60621 68400.00000 0 23604559.365 4432095.220 8554773.829 10 0 60621 69300.00000 0 22367593.129 4263776.997 11476606.239 10 0 60621 70200.00000 0 20777163.301 4216609.325 14175266.691 10 0 60621 71100.00000 0 18876450.633 4334975.437 16598422.561 10 0 60621 72000.00000 0 16718562.109 4654422.805 18699152.967 10 0 60621 72900.00000 0 14364438.110 5199961.938 20436848.178 10 0 60621 73800.00000 0 11880451.718 5984821.190 21777982.298 10 0 60621 74700.00000 0 9335800.810 7009709.208 22696745.655 10 0 60621 75600.00000 0 6799801.450 8262615.128 23175526.345 10 0 60621 76500.00000 0 4339194.366 9719154.143 23205233.325 10 0 60621 77400.00000 0 2015575.108 11343443.501 22785456.421 10 0 60621 78300.00000 0 -116947.258 13089472.152 21924461.512 10 0 60621 79200.00000 0 -2013767.943 14902907.175 20639021.937 10 0 60621 80100.00000 0 -3641399.228 16723262.294 18954089.918 10 0 60621 81000.00000 0 -4978613.589 18486339.098 16902314.401 10 0 60621 81900.00000 0 -6017071.700 20126840.451 14523414.215 10 0 60621 82800.00000 0 -6761410.912 21581048.426 11863417.958 10 0 60621 83700.00000 0 -7228791.830 22789456.344 8973784.269 10 0 60621 84600.00000 0 -7447922.827 23699246.069 5910418.316 10 0 60621 85500.00000 0 -7457603.708 24266507.802 2732602.372 10 0 60622 0.00000 0 -7304849.698 24458109.828 -498139.693 10 0 60622 900.00000 0 -7042674.232 24253139.872 -3719224.727 10 0 60622 1800.00000 0 -6727623.721 23643856.856 -6868212.949 10 0 60622 2700.00000 0 -6417167.508 22636112.503 -9884013.951 10 0 60622 3600.00000 0 -6167053.041 21249223.312 -12708068.703 10 0 60622 4500.00000 0 -6028737.824 19515296.754 -15285486.430 10 0 60622 5400.00000 0 -6047006.934 17478038.062 -17566113.941 10 0 60622 6300.00000 0 -6257877.431 15191085.678 -19505516.425 10 0 60622 7200.00000 0 -6686879.277 12715943.317 -21065850.214 10 0 60622 8100.00000 0 -7347786.865 10119593.542 -22216610.011 10 0 60622 9000.00000 0 -8241856.513 7471891.364 -22935235.401 10 0 60622 9900.00000 0 -9357604.149 4842845.824 -23207564.010 10 0 60622 10800.00000 0 -10671134.714 2299902.541 -23028121.579 10 0 60622 11700.00000 0 -12147011.475 -94659.556 -22400242.346 10 0 60622 12600.00000 0 -13739630.536 -2286108.545 -21336016.312 10 0 60622 13500.00000 0 -15395044.081 -4229317.195 -19856063.472 10 0 60622 14400.00000 0 -17053156.660 -5890411.777 -17989138.498 10 0 60622 15300.00000 0 -18650202.398 -7247942.789 -15771572.926 10 0 60622 16200.00000 0 -20121398.690 -8293528.652 -13246565.367 10 0 60622 17100.00000 0 -21403663.937 -9031945.822 -10463333.568 10 0 60622 18000.00000 0 -22438283.746 -9480662.392 -7476145.317 10 0 60622 18900.00000 0 -23173411.956 -9668836.252 -4343247.927 10 0 60622 19800.00000 0 -23566299.788 -9635821.812 -1125718.367 10 0 60622 20700.00000 0 -23585158.036 -9429250.514 2113742.029 10 0 60622 21600.00000 0 -23210573.064 -9102768.611 5312043.185 10 0 60622 22500.00000 0 -22436416.695 -8713530.199 8406946.625 10 0 60622 23400.00000 0 -21270211.890 -8319553.752 11338284.978 10 0 60622 24300.00000 0 -19732939.557 -7977055.731 14049135.912 10 0 60622 25200.00000 0 -17858295.621 -7737875.299 16486927.198 10 0 60622 26100.00000 0 -15691430.756 -7647099.589 18604451.361 10 0 60622 27000.00000 0 -13287226.735 -7740989.853 20360770.849 10 0 60622 27900.00000 0 -10708182.385 -8045295.441 21721997.195 10 0 60622 28800.00000 0 -8021997.931 -8574025.718 22661930.502 10 0 60622 29700.00000 0 -5298958.353 -9328730.498 23162548.529 10 0 60622 30600.00000 0 -2609223.989 -10298318.105 23214337.671 10 0 60622 31500.00000 0 -20139.782 -11459417.778 22816461.026 10 0 60622 32400.00000 0 2406326.816 -12777270.653 21976761.676 10 0 60622 33300.00000 0 4615915.117 -14207111.889 20711602.106 10 0 60622 34200.00000 0 6564073.202 -15695986.436 19045543.382 10 0 60622 35100.00000 0 8217551.957 -17184923.253 17010870.382 10 0 60622 36000.00000 0 9555527.064 -18611378.163 14646971.850 10 0 60622 36900.00000 0 10570204.179 -19911844.453 11999586.538 10 0 60622 37800.00000 0 11266883.621 -21024523.309 9119929.024 10 0 60622 38700.00000 0 11663482.943 -21891943.529 6063710.893 10 0 60622 39600.00000 0 11789537.948 -22463421.658 2890075.088 10 0 60622 40500.00000 0 11684724.260 -22697259.982 -339537.120 10 0 60622 41400.00000 0 11396961.322 -22562590.239 -3562565.590 10 0 60622 42300.00000 0 10980178.228 -22040785.202 -6716535.135 10 0 60622 43200.00000 0 10491834.967 -21126377.933 -9740260.922 10 0 60622 44100.00000 0 9990303.154 -19827448.708 -12575032.466 10 0 60622 45000.00000 0 9532216.460 -18165461.575 -15165753.300 10 0 60622 45900.00000 0 9169902.570 -16174555.403 -17462014.158 10 0 60622 46800.00000 0 8949005.369 -13900316.969 -19419078.591 10 0 60622 47700.00000 0 8906398.461 -11398085.385 -20998761.441 10 0 60622 48600.00000 0 9068479.101 -8730856.843 -22170182.582 10 0 60622 49500.00000 0 9449915.963 -5966875.570 -22910380.617 10 0 60622 50400.00000 0 10052905.170 -3177010.304 -23204773.759 10 0 60622 51300.00000 0 10866967.794 -432024.866 -23047458.070 10 0 60622 52200.00000 0 11869299.162 2200143.831 -22441336.233 10 0 60622 53100.00000 0 13025656.935 4656986.885 -21398073.327 10 0 60622 54000.00000 0 14291751.939 6883794.980 -19937879.477 10 0 60622 54900.00000 0 15615084.130 8835701.108 -18089122.705 10 0 60622 55800.00000 0 16937146.759 10479308.762 -15887778.858 10 0 60622 56700.00000 0 18195905.776 11793837.330 -13376728.957 10 0 60622 57600.00000 0 19328449.270 12771736.868 -10604917.642 10 0 60622 58500.00000 0 20273694.141 13418747.002 -7626389.556 10 0 60622 59400.00000 0 20975034.435 13753398.584 -4499223.294 10 0 60622 60300.00000 0 21382818.121 13805980.634 -1284384.861 10 0 60622 61200.00000 0 21456546.376 13617018.102 1955475.477 10 0 60622 62100.00000 0 21166701.484 13235326.998 5157257.918 10 0 60622 63000.00000 0 20496125.524 12715731.421 8258653.837 10 0 60622 63900.00000 0 19440891.531 12116541.287 11199366.873 10 0 60622 64800.00000 0 18010630.688 11496899.347 13922289.651 10 0 60622 65700.00000 0 16228302.445 10914111.138 16374612.718 10 0 60622 66600.00000 0 14129418.127 10421071.552 18508844.065 10 0 60622 67500.00000 0 11760751.574 10063896.864 20283720.046 10 0 60622 68400.00000 0 9178591.584 9879861.715 21664991.007 10 0 60622 69300.00000 0 6446609.715 9895727.014 22626067.845 10 0 60622 70200.00000 0 3633432.429 10126527.858 23148518.631 10 0 60622 71100.00000 0 810018.114 10574870.984 23222407.421 10 0 60622 72000.00000 0 -1953052.955 11230769.899 22846470.357 10 0 60622 72900.00000 0 -4588264.765 12072023.504 22028127.018 10 0 60622 73800.00000 0 -7033718.328 13065121.652 20783327.823 10 0 60622 74700.00000 0 -9235447.333 14166639.472 19136240.995 10 0 60622 75600.00000 0 -11149402.904 15325062.333 17118785.220 10 0 60622 76500.00000 0 -12743027.289 16482965.730 14770016.665 10 0 60622 77400.00000 0 -13996353.010 17579459.776 12135381.493 10 0 60622 78300.00000 0 -14902583.375 18552797.023 9265847.302 10 0 60622 79200.00000 0 -15468131.357 19343035.472 6216929.110 10 0 60622 80100.00000 0 -15712115.969 19894645.994 3047627.550 10 0 60622 81000.00000 0 -15665337.523 20158955.384 -180701.337 10 0 60622 81900.00000 0 -15368774.710 20096322.670 -3405523.833 10 0 60622 82800.00000 0 -14871666.271 19677956.933 -6564331.754 10 0 60622 83700.00000 0 -14229257.447 18887299.444 -9595848.380 10 0 60622 84600.00000 0 -13500305.550 17720910.742 -12441214.108 10 0 60622 85500.00000 0 -12744449.297 16188823.617 -15045128.886 10 0 60623 0.00000 0 -12019552.615 14314345.284 -17356929.016 10 0 60623 900.00000 0 -11379134.506 12133313.694 -19331578.382 10 0 60623 1800.00000 0 -10869994.681 9692839.341 -20930551.387 10 0 60623 2700.00000 0 -10530134.370 7049579.644 -22122594.061 10 0 60623 3600.00000 0 -10387061.973 4267618.388 -22884344.724 10 0 60623 4500.00000 0 -10456555.770 1416036.175 -23200802.597 10 0 60623 5400.00000 0 -10741937.327 -1433727.876 -23065634.172 10 0 60623 6300.00000 0 -11233887.707 -4210614.007 -22481310.353 10 0 60623 7200.00000 0 -11910815.636 -6846665.452 -21459070.716 10 0 60623 8100.00000 0 -12739763.343 -9279624.273 -20018714.550 10 0 60623 9000.00000 0 -13677812.750 -11455290.847 -18188221.878 10 0 60623 9900.00000 0 -14673933.180 -13329548.048 -16003211.154 10 0 60623 10800.00000 0 -15671192.560 -14869965.164 -13506243.795 10 0 60623 11700.00000 0 -16609238.228 -16056914.270 -10745989.074 10 0 60623 12600.00000 0 -17426941.525 -16884152.438 -7776266.057 10 0 60623 13500.00000 0 -18065093.099 -17358846.031 -4654982.062 10 0 60623 14400.00000 0 -18469033.440 -17501037.228 -1442989.508 10 0 60623 15300.00000 0 -18591105.889 -17342576.937 1797115.076 10 0 60623 16200.00000 0 -18392827.098 -16925571.155 5002224.871 10 0 60623 17100.00000 0 -17846682.186 -16300408.636 8109963.808 10 0 60623 18000.00000 0 -16937468.233 -15523455.482 11059909.234 10 0 60623 18900.00000 0 -15663129.308 -14654516.160 13794771.366 10 0 60623 19800.00000 0 -14035048.157 -13754169.896 16261506.033 10 0 60623 20700.00000 0 -12077782.936 -12881096.025 18412339.014 10 0 60623 21600.00000 0 -9828260.782 -12089501.632 20205682.606 10 0 60623 22500.00000 0 -7334462.755 -11426759.655 21606927.689 10 0 60623 23400.00000 0 -4653655.671 -10931356.072 22589097.298 10 0 60623 24300.00000 0 -1850244.755 -10631231.181 23133350.753 10 0 60623 25200.00000 0 1006663.782 -10542583.025 23229330.313 10 0 60623 26100.00000 0 3845889.692 -10669181.473 22875345.303 10 0 60623 27000.00000 0 6596887.412 -11002220.148 22078391.565 10 0 60623 27900.00000 0 9192425.926 -11520711.142 20854006.871 10 0 60623 28800.00000 0 11571130.610 -12192405.138 19225965.668 10 0 60623 29700.00000 0 13679783.819 -12975198.068 17225819.186 10 0 60623 30600.00000 0 15475290.897 -13818965.530 14892289.410 10 0 60623 31500.00000 0 16926231.858 -14667748.645 12270527.943 10 0 60623 32400.00000 0 18013935.914 -15462200.527 9411253.085 10 0 60623 33300.00000 0 18733035.326 -16142191.739 6369780.632 10 0 60623 34200.00000 0 19091476.312 -16649466.205 3204965.964 10 0 60623 35100.00000 0 19109986.956 -16930236.761 -21923.263 10 0 60623 36000.00000 0 18821024.392 -16937611.564 -3248383.014 10 0 60623 36900.00000 0 18267245.119 -16633749.236 -6411875.367 10 0 60623 37800.00000 0 17499562.127 -15991651.489 -9451034.883 10 0 60623 38700.00000 0 16574869.892 -14996516.666 -12306855.833 10 0 60623 39600.00000 0 15553532.360 -13646595.687 -14923837.339 10 0 60623 40500.00000 0 14496739.125 -11953512.377 -17251064.152 10 0 60623 41400.00000 0 13463840.889 -9942032.361 -19243201.852 10 0 60623 42300.00000 0 12509776.365 -7649287.739 -20861386.712 10 0 60623 43200.00000 0 11682699.290 -5123487.491 -22073992.431 10 0 60623 44100.00000 0 11021906.018 -2422165.178 -22857258.165 10 0 60623 45000.00000 0 10556151.811 389964.877 -23195764.856 10 0 60623 45900.00000 0 10302427.728 3243455.111 -23082749.705 10 0 60623 46800.00000 0 10265250.754 6066775.065 -22520251.707 10 0 60623 47700.00000 0 10436498.186 8789054.667 -21519084.375 10 0 60623 48600.00000 0 10795794.221 11342806.318 -20098635.217 10 0 60623 49500.00000 0 11311433.200 13666512.040 -18286494.916 10 0 60623 50400.00000 0 11941800.897 15706967.262 -16117922.815 10 0 60623 51300.00000 0 12637233.802 17421282.758 -13635158.638 10 0 60623 52200.00000 0 13342237.300 18778460.573 -10886593.845 10 0 60623 53100.00000 0 13997967.978 19760477.699 -7925819.142 10 0 60623 54000.00000 0 14544873.706 20362832.279 -4810567.517 10 0 60623 54900.00000 0 14925378.178 20594530.123 -1601574.536 10 0 60623 55800.00000 0 15086494.612 20477513.370 1638620.380 10 0 60623 56700.00000 0 14982256.439 20045557.106 4846906.755 10 0 60623 57600.00000 0 14575860.817 19342682.539 7960844.331 10 0 60623 58500.00000 0 13841433.475 18421155.907 10919887.212 10 0 60623 59400.00000 0 12765339.846 17339159.762 13666565.985 10 0 60623 60300.00000 0 11346987.192 16158236.712 16147604.236 10 0 60623 61200.00000 0 9599084.281 14940614.867 18314947.675 10 0 60623 62100.00000 0 7547348.281 13746528.429 20126686.369 10 0 60623 63000.00000 0 5229671.794 12631646.283 21547853.209 10 0 60623 63900.00000 0 2694785.436 11644716.109 22551084.502 10 0 60623 64800.00000 0 472.065 10825521.730 23117131.575 10 0 60623 65700.00000 0 -2788593.082 10203237.734 23235215.241 10 0 60623 66600.00000 0 -5603287.045 9795248.417 22903217.918 10 0 60623 67500.00000 0 -8372668.138 9606478.582 22127711.130 10 0 60623 68400.00000 0 -11026681.674 9629262.443 20923818.913 10 0 60623 69300.00000 0 -13498831.980 9843754.706 19314920.347 10 0 60623 70200.00000 0 -15728711.890 10218865.658 17332197.129 10 0 60623 71100.00000 0 -17664286.813 10713680.674 15014034.569 10 0 60623 72000.00000 0 -19263840.376 11279304.672 12405286.896 10 0 60623 72900.00000 0 -20497502.437 11861054.627 9556420.079 10 0 60623 73800.00000 0 -21348297.125 12400908.807 6522547.548 10 0 60623 74700.00000 0 -21812668.040 12840110.640 3362376.277 10 0 60623 75600.00000 0 -21900459.106 13121818.455 137082.450 10 0 60623 76500.00000 0 -21634351.878 13193690.099 -3090862.557 10 0 60623 77400.00000 0 -21048782.496 13010293.738 -6258893.921 10 0 60623 78300.00000 0 -20188383.149 12535242.966 -9305560.151 10 0 60623 79200.00000 0 -19106012.700 11742965.438 -12171711.863 10 0 60623 80100.00000 0 -17860458.451 10620029.192 -14801649.593 10 0 60623 81000.00000 0 -16513904.939 9165968.967 -17144208.309 10 0 60623 81900.00000 0 -15129275.648 7393575.548 -19153757.346 10 0 60623 82800.00000 0 -13767559.091 5328633.433 -20791095.925 10 0 60623 83700.00000 0 -12485231.635 3009115.222 -22024226.336 10 0 60623 84600.00000 0 -11331885.654 483863.835 -22828989.136 10 0 60623 85500.00000 0 -10348163.191 -2189184.652 -23189547.177 99